GFSFLT1_500_rhum_042.txt.gz
RH
47 44 38 34 36 46 43 32 59 61 55 48 54 57 52 52 64 76 72 70 81 86 75 66 60 56 36 25 22 19 16 15
23 19 39 33 22 24 33 39 48 20 11 14 20 24 22 26 39 54 60 62 54 49 38 39 24 24 23 22 21 18 17 17
10 13 12 13 16 18 20 18 31 48 16 14 12 11 10 24 46 52 53 71 82 71 64 26 25 21 21 21 20 19 18 16
13 9 9 12 13 12 10 9 9 10 12 7 8 7 7 11 13 19 32 66 79 88 66 67 22 27 24 20 19 22 23 33
16 18 12 10 9 9 9 10 11 11 10 10 9 8 12 21 21 21 22 29 30 59 68 66 67 50 47 53 49 54 56 61
19 15 19 15 14 12 11 12 13 15 17 13 10 8 15 21 29 30 27 25 33 27 39 74 92 71 72 90 73 68 79 81
42 28 27 37 43 46 51 29 34 34 21 16 18 18 20 41 45 39 35 35 48 63 56 62 83 83 90 84 96 88 86 53
44 38 31 29 30 32 36 45 45 40 32 25 20 18 16 36 70 50 43 40 51 73 79 98 96 95 92 82 94 95 73 51
36 35 37 33 29 35 33 31 41 46 43 32 27 29 30 28 31 31 57 78 83 96 99 99 96 96 94 93 97 94 60 42
37 41 37 30 50 64 26 29 32 37 42 44 34 32 41 34 29 55 85 68 96 100 98 99 98 97 98 89 97 67 32 14
39 31 25 33 40 50 43 34 29 40 48 62 88 46 52 62 33 35 79 53 83 96 98 96 99 97 98 98 91 48 14 15
41 35 26 23 27 33 39 63 58 59 82 97 94 98 98 86 96 78 86 91 98 97 96 96 98 97 81 60 34 14 15 30
54 38 42 32 35 33 26 19 49 64 91 93 96 88 99 71 97 99 97 97 98 97 92 89 66 78 66 32 30 11 16 15
72 59 56 51 37 34 35 25 12 15 51 87 97 99 96 99 96 90 84 88 97 94 60 60 72 62 34 23 12 16 14 15
69 72 83 52 51 37 28 23 15 17 47 51 69 72 93 82 65 71 57 64 53 60 73 70 52 30 26 14 16 15 16 16
65 76 66 58 46 42 38 30 21 14 14 15 27 46 45 45 51 55 44 50 50 60 75 46 26 28 15 14 15 16 15 17
74 80 63 62 38 42 38 28 18 17 15 32 44 40 40 40 51 58 63 65 46 34 36 30 27 15 14 16 16 15 16 22
65 52 44 43 30 30 27 15 13 18 25 39 41 39 52 58 58 59 57 27 20 26 28 20 15 14 16 18 15 14 16 36
82 82 37 66 41 17 12 16 25 26 39 53 48 43 46 46 57 35 18 20 30 31 18 17 15 17 18 15 15 17 35 59

GFSFLT1_500_rhum_045.txt.gz
RH
30 40 38 47 52 62 71 62 52 65 92 64 80 72 71 84 77 64 73 88 92 93 90 74 92 98 96 94 82 62 29 24
16 30 39 36 34 37 33 45 72 78 71 69 68 68 58 49 49 58 66 76 86 72 74 81 90 84 77 52 35 27 25 22
11 14 11 19 20 20 27 44 21 12 16 24 15 11 16 27 42 51 60 58 57 56 53 46 40 40 41 33 27 25 24 22
12 7 8 10 12 16 14 16 40 18 12 12 13 14 22 28 50 51 62 60 63 67 66 52 28 24 21 22 23 23 22 19
19 10 8 9 9 9 9 9 8 11 10 9 10 12 13 15 13 15 41 52 58 77 78 81 77 42 26 27 25 21 20 36
16 15 12 10 9 8 9 8 9 10 9 9 10 15 23 29 30 28 28 35 37 72 75 81 69 66 34 29 50 75 100 85
40 27 29 35 35 32 20 13 15 20 22 17 18 15 19 28 34 34 33 32 36 42 41 41 59 68 79 78 89 99 99 98
37 40 38 38 38 36 38 43 46 42 37 29 24 23 25 27 47 56 49 39 42 67 67 69 68 67 84 87 95 99 98 96
44 50 33 38 36 29 29 32 30 46 50 45 37 31 30 35 35 62 83 86 80 72 79 96 100 97 99 98 99 99 99 97
50 46 44 42 41 47 58 46 28 30 53 55 51 46 40 40 44 33 32 40 82 92 70 90 80 98 97 98 98 99 98 97
47 45 36 28 28 40 66 57 53 44 41 58 76 76 95 99 59 47 50 39 49 89 98 78 87 97 99 98 98 99 97 95
39 39 38 34 34 35 36 89 70 72 95 100 99 100 98 97 98 91 93 86 79 96 97 97 94 98 99 97 95 94 78 32
50 55 41 35 39 37 43 49 53 56 70 87 96 98 96 98 98 98 98 98 97 98 96 97 96 97 96 96 91 70 31 22
65 58 52 51 54 52 46 46 54 36 43 38 46 60 94 96 97 91 98 93 93 92 94 90 71 87 84 83 59 28 25 20
47 70 58 60 62 57 53 50 37 30 24 19 26 40 47 57 88 48 40 75 77 80 51 49 64 85 92 84 35 29 18 15
35 45 64 70 63 59 39 41 33 24 25 24 18 20 25 44 75 57 48 48 65 93 84 90 90 64 81 78 33 20 15 16
36 45 76 78 71 85 77 66 60 44 30 22 17 23 37 56 68 64 67 68 70 69 62 82 47 69 63 30 20 17 18 20
92 69 62 69 52 82 66 63 46 27 18 15 16 34 45 53 56 60 59 60 73 72 69 68 57 34 34 20 19 19 21 22
80 75 73 63 63 80 50 59 34 25 18 16 16 32 46 59 64 62 58 71 84 44 24 18 26 33 26 18 18 18 21 22

GFSFLT1_500_rhum_048.txt.gz
RH
36 37 36 42 52 65 93 67 74 86 68 85 87 74 71 94 95 95 86 90 99 100 99 98 98 98 98 97 96 95 93 76
18 24 34 26 38 39 81 84 69 99 92 100 98 78 100 100 93 95 96 100 100 100 98 100 92 94 98 97 97 93 92 74
15 13 11 19 18 33 38 27 62 79 83 98 94 80 89 99 96 99 97 97 100 100 96 92 95 93 95 93 99 95 81 61
26 9 8 8 11 17 16 36 14 20 40 42 43 57 59 44 53 55 54 66 65 73 76 70 83 83 82 78 62 48 37 29
28 14 8 7 10 11 11 11 30 16 12 14 13 18 25 27 38 41 50 58 61 60 59 51 42 38 34 32 30 29 28 24
23 16 12 8 8 9 9 9 10 10 10 10 11 12 11 13 16 22 45 59 68 80 82 74 74 73 58 57 26 29 26 24
33 23 16 14 12 11 12 11 13 16 19 19 14 12 18 24 29 30 30 32 42 48 64 81 89 87 80 75 67 54 74 89
47 31 28 33 36 43 46 47 41 33 35 32 26 22 22 24 26 35 36 35 36 36 35 38 49 49 54 56 68 96 92 92
44 35 31 31 30 29 28 29 31 45 54 48 40 35 31 28 24 25 30 52 46 40 38 36 63 78 80 82 93 97 100 100
44 39 36 31 27 33 31 30 39 31 32 43 49 47 44 40 38 36 35 34 31 32 32 56 69 78 70 95 95 99 97 97
56 58 52 30 33 30 27 40 52 46 33 29 35 58 61 57 59 78 96 80 50 30 24 46 69 95 95 96 97 99 98 99
55 50 47 37 38 26 26 39 47 58 68 78 84 76 71 72 85 95 97 98 99 89 76 85 90 92 96 98 97 92 98 99
55 73 57 46 41 33 33 39 36 46 58 68 79 98 96 89 93 95 99 92 89 95 98 94 99 98 97 89 98 97 98 97
45 62 68 66 57 47 45 56 49 50 66 75 74 65 62 65 68 90 95 95 86 97 99 97 97 91 55 75 84 80 74 71
49 53 72 71 70 59 50 60 55 50 46 36 35 36 36 40 44 51 56 90 91 53 86 97 99 96 77 73 77 85 89 85
59 69 66 60 63 57 65 73 64 50 38 47 47 36 27 24 22 33 45 72 91 88 58 86 90 89 100 97 61 64 77 76
35 42 45 43 63 75 90 77 58 53 61 53 35 35 34 22 17 33 45 63 76 72 79 72 80 86 82 74 79 85 76 39
60 50 40 60 58 62 98 93 93 68 57 40 34 35 24 16 20 37 50 62 75 81 80 82 93 95 67 56 65 36 28 27
53 52 66 55 80 72 92 100 96 92 54 41 31 14 14 15 18 32 52 68 81 93 83 78 80 77 76 70 24 20 21 30

GFSFLT1_500_rhum_051.txt.gz
RH
22 31 35 36 39 56 60 97 81 94 95 97 97 96 95 96 97 97 97 97 96 90 78 87 97 94 92 99 97 95 98 98
18 17 21 26 35 40 84 97 89 79 94 95 94 76 74 67 83 96 96 96 96 92 94 100 94 95 99 97 100 100 98 99
24 16 12 11 20 31 33 42 72 88 80 97 96 98 97 81 88 92 91 98 97 100 97 97 97 95 94 100 100 96 93 88
23 24 10 8 10 15 18 36 21 76 80 87 96 95 97 93 91 97 98 96 99 98 97 97 95 86 92 95 93 96 83 84
25 25 11 8 9 11 12 16 37 14 38 53 47 54 83 97 95 76 73 75 86 98 97 80 70 68 72 85 80 87 88 82
35 21 15 10 9 8 9 8 9 17 16 11 12 11 16 23 33 34 30 44 50 57 63 61 60 60 78 72 61 45 57 39
54 31 15 14 11 10 9 9 8 8 8 8 8 8 9 9 11 12 11 19 34 48 58 62 71 66 59 59 63 46 84 73
60 55 36 23 25 32 35 30 20 17 20 23 17 14 14 14 15 20 23 25 27 29 31 33 38 74 80 83 73 71 64 70
59 58 46 33 30 32 34 27 27 29 32 32 33 31 24 22 23 21 22 25 31 35 37 34 32 34 46 44 50 62 66 65
41 42 38 36 33 24 25 30 30 30 35 25 33 42 41 38 35 33 32 32 32 39 43 40 39 32 38 58 73 74 70 84
57 46 40 45 54 36 28 36 30 39 46 44 34 30 39 45 44 46 53 58 73 85 77 51 33 30 33 47 60 75 93 95
74 54 54 41 41 35 34 32 26 40 57 54 52 62 71 63 61 87 92 97 98 98 99 100 89 52 49 56 74 83 94 99
79 80 52 48 41 43 44 36 28 34 36 33 50 56 60 80 96 93 82 72 83 98 96 88 97 88 98 99 100 97 97 100
89 98 73 74 68 67 48 40 37 39 51 53 42 41 64 73 59 56 56 62 68 76 92 68 89 88 96 97 93 92 81 96
56 79 79 90 81 69 70 66 62 58 51 52 53 46 42 37 37 33 33 36 45 41 72 92 84 76 97 98 98 95 86 88
46 52 55 66 78 79 83 88 73 66 53 48 59 48 61 52 40 37 36 28 23 36 46 82 92 97 87 84 76 84 100 98
51 72 67 55 74 76 76 80 84 75 66 59 59 47 61 50 31 29 33 28 18 28 42 64 84 97 90 82 73 99 96 76
84 70 60 58 73 84 73 84 92 93 72 71 63 58 58 46 30 33 22 18 16 21 29 49 66 86 97 92 91 91 92 90
96 94 88 84 73 67 69 89 80 98 94 91 88 83 59 38 35 20 14 13 18 32 38 48 66 78 96 97 74 80 74 62

GFSFLT1_500_rhum_054.txt.gz
RH
22 19 15 17 26 47 54 46 91 95 96 96 96 96 97 96 97 97 96 96 96 96 98 96 94 88 87 82 80 85 92 96
24 21 16 13 14 30 36 63 79 93 95 97 96 96 95 96 96 97 97 97 96 97 97 97 97 92 95 90 87 90 93 95
25 21 19 12 9 15 29 27 42 70 87 92 93 96 94 95 96 96 96 96 97 96 97 98 98 94 93 91 91 94 89 93
32 23 21 15 7 7 14 20 20 64 81 82 95 96 89 95 90 88 96 97 98 98 95 95 98 95 90 89 92 91 90 87
35 26 23 16 9 7 9 12 29 14 58 79 89 92 97 93 98 99 98 100 100 96 97 95 96 96 90 90 78 79 83 83
44 33 22 17 10 7 7 7 7 20 14 18 28 30 47 59 80 95 94 78 71 76 86 86 84 77 64 70 61 65 64 81
45 45 32 17 12 11 9 8 7 7 7 9 10 10 11 21 30 40 39 34 44 48 50 49 63 61 53 62 60 50 51 72
46 47 50 44 23 20 21 24 20 12 9 8 7 8 8 8 8 10 10 10 11 13 20 26 29 33 36 50 76 58 59 61
41 47 50 50 45 28 25 24 25 22 21 24 29 24 21 15 14 14 14 15 19 21 24 25 27 30 27 27 30 47 62 56
36 52 48 51 42 37 31 24 22 23 22 24 19 21 28 33 28 25 24 21 23 27 29 32 36 38 36 34 31 35 38 49
36 36 42 54 40 45 50 39 28 27 25 27 27 32 25 21 24 30 32 33 37 45 50 78 90 74 49 38 32 30 34 53
39 42 50 51 42 47 52 45 32 34 28 27 32 37 38 40 48 57 49 64 87 86 86 88 94 98 94 90 87 49 29 42
44 55 64 48 50 52 59 49 41 44 32 27 29 32 36 31 42 52 59 65 64 62 62 64 72 87 74 83 97 97 77 48
49 60 58 68 55 45 48 54 61 45 34 32 37 46 44 43 47 57 61 58 47 52 34 39 51 48 83 79 88 93 85 94
40 44 51 60 89 67 64 66 66 49 42 44 52 49 50 55 69 64 48 42 39 35 32 28 25 42 51 88 84 67 87 89
84 66 57 64 88 83 72 76 69 66 68 69 66 63 57 51 56 52 60 52 37 33 34 32 27 22 32 67 83 87 77 86
98 94 79 57 56 89 85 89 88 87 98 85 80 69 67 69 56 52 55 56 41 30 32 28 22 20 27 40 57 87 95 97
74 92 97 89 63 66 66 62 81 87 96 73 62 55 71 83 72 66 69 67 43 35 27 15 18 21 32 54 70 82 98 98
60 65 82 96 86 75 75 68 68 77 92 78 79 71 66 80 86 76 73 65 44 43 20 21 22 43 46 51 58 60 69 72

GFSFLT1_500_rhum_057.txt.gz
RH
22 25 20 18 13 17 49 61 64 94 96 95 96 98 97 97 96 97 95 96 96 97 97 96 96 94 97 98 98 84 73 77
17 18 21 19 13 10 32 29 58 91 94 96 96 96 97 97 96 97 96 96 96 95 95 97 96 96 96 97 86 86 89 87
13 22 21 18 14 8 13 24 24 60 78 80 95 97 96 94 93 96 97 96 97 96 95 96 97 95 96 96 94 92 95 91
18 27 24 20 16 9 6 13 26 27 75 98 90 95 96 94 96 96 96 97 95 94 95 97 96 96 96 97 95 89 85 80
24 34 28 23 18 10 7 9 12 21 41 80 93 93 96 95 95 95 91 88 94 96 97 96 93 90 90 95 89 90 78 76
27 40 32 24 17 10 7 7 6 9 23 17 33 56 47 77 87 87 86 90 91 95 94 90 89 93 95 88 74 61 57 63
24 35 36 31 24 14 15 13 8 6 6 12 13 11 21 15 30 64 94 96 88 68 60 75 82 91 86 74 77 60 54 66
16 34 39 35 29 26 18 16 16 16 12 11 8 6 7 7 8 10 22 30 32 38 33 48 54 67 70 57 72 75 81 79
15 29 38 40 34 29 22 19 18 19 18 17 19 22 18 11 10 8 7 8 10 12 17 26 37 40 45 45 44 52 48 64
13 25 33 43 37 32 26 27 27 19 17 19 18 17 16 23 27 26 16 16 15 16 21 25 27 29 32 34 36 37 38 33
19 18 30 48 43 34 32 36 38 35 26 25 23 20 24 24 22 18 22 27 27 25 26 28 29 42 72 72 68 64 45 37
42 16 23 42 42 42 36 41 44 42 30 32 31 24 26 30 36 42 42 38 26 36 55 71 70 69 75 74 78 83 72 75
38 26 20 32 45 54 45 40 42 41 32 34 40 27 25 24 30 35 32 40 51 60 59 56 58 55 53 56 57 73 74 70
46 42 30 38 44 54 41 43 49 38 34 39 41 36 30 36 44 44 38 38 44 50 51 46 49 33 26 26 34 44 52 68
64 55 57 58 57 57 55 40 46 51 49 52 48 43 38 40 46 44 40 49 58 49 41 37 35 33 31 29 28 25 25 31
82 79 75 58 59 63 59 50 57 56 50 56 62 51 55 58 56 57 57 52 56 50 53 49 43 39 36 30 30 25 24 23
82 91 83 83 73 63 72 70 74 77 69 60 72 63 60 64 68 68 66 60 57 51 50 52 52 38 31 29 31 30 29 28
36 63 78 85 88 81 76 70 65 56 58 64 62 75 66 61 69 63 70 74 76 64 62 68 64 44 37 26 16 31 41 49
13 26 57 79 81 83 83 81 70 62 61 67 70 73 77 72 78 62 74 68 63 72 79 81 78 72 49 44 38 31 37 48

GFSFLT1_500_rhum_060.txt.gz
RH
17 16 18 22 19 15 12 27 42 46 90 89 77 73 72 77 85 87 85 90 98 98 97 96 97 96 95 82 83 96 97 87
9 11 15 22 19 15 12 16 29 30 75 94 71 80 85 84 79 88 94 94 97 98 95 96 98 96 96 90 92 96 96 94
7 10 16 24 21 16 12 8 17 22 43 65 70 93 94 98 93 96 93 90 96 96 97 88 95 96 96 96 97 96 96 96
9 15 20 29 23 17 11 7 11 23 33 64 84 84 90 95 95 84 96 92 96 95 94 94 98 94 97 97 96 96 96 95
9 15 29 32 24 17 9 6 6 22 21 44 71 76 92 89 92 95 95 95 95 97 96 95 88 94 97 97 96 95 93 97
12 14 27 32 25 15 9 7 6 6 15 26 20 34 73 67 94 94 96 94 95 95 96 94 93 90 94 98 96 86 88 81
12 10 20 28 32 25 14 17 14 8 6 6 11 11 17 39 40 59 89 94 93 95 96 96 92 83 91 98 94 93 72 62
16 10 14 16 29 37 28 19 17 16 16 12 8 6 6 7 10 29 45 59 47 51 42 53 56 66 89 97 99 89 81 89
28 12 12 15 22 37 35 22 21 21 19 18 17 16 15 12 12 9 8 12 17 18 14 19 24 38 48 57 63 57 71 66
47 15 14 14 21 29 35 28 25 22 20 20 20 19 17 16 22 24 24 16 14 13 13 17 20 24 28 28 30 38 37 41
41 39 17 16 16 24 29 35 31 34 37 32 26 24 22 21 26 23 19 20 24 26 23 20 20 24 26 26 49 65 58 54
64 57 45 17 20 24 31 31 36 42 39 38 33 31 30 25 28 33 36 36 32 32 24 26 33 62 64 61 61 72 75 73
79 77 60 48 22 31 40 37 33 39 39 36 33 33 38 28 29 27 26 30 29 37 49 58 62 60 56 53 54 48 47 50
85 66 57 43 24 25 35 47 46 36 33 32 30 29 36 38 32 31 34 36 37 38 38 44 55 50 48 49 42 26 26 26
77 71 65 57 36 22 31 37 52 51 44 37 36 34 43 46 41 39 34 40 45 45 42 47 50 43 40 39 37 34 33 32
85 86 84 80 59 45 30 31 38 54 55 50 52 52 47 48 52 50 49 50 49 53 45 51 49 44 44 46 48 47 39 35
78 73 57 64 81 65 69 68 54 40 36 40 63 66 69 63 56 55 59 60 57 48 51 61 63 60 52 48 50 54 40 29
31 32 36 42 60 80 72 76 86 79 66 52 52 55 58 68 72 69 66 67 69 68 49 47 53 62 64 62 66 60 58 38
20 19 19 37 51 40 53 60 80 75 80 79 74 67 61 58 58 71 78 69 68 85 84 55 58 59 66 81 87 75 67 62

GFSFLT1_500_rhum_063.txt.gz
RH
8 5 15 16 16 17 15 12 13 26 41 95 94 86 82 72 63 62 69 82 78 78 85 82 75 66 81 95 96 94 96 89
11 6 11 11 14 17 16 13 10 16 29 65 92 75 70 63 62 67 60 70 77 90 92 82 90 95 98 97 97 95 96 89
18 8 9 12 17 20 16 11 8 13 24 40 61 64 78 77 87 84 78 83 83 95 91 94 97 97 96 92 98 96 96 95
20 9 8 16 22 22 16 8 7 7 20 42 72 66 86 79 98 100 100 96 94 90 95 96 97 100 100 98 96 95 97 97
27 12 9 19 22 21 14 7 6 6 12 24 38 66 80 88 94 94 93 93 89 96 91 93 99 99 100 100 100 90 97 97
29 17 12 17 25 21 14 10 10 7 6 12 19 21 57 66 80 78 95 95 90 95 96 97 98 94 94 94 92 97 97 97
32 18 15 12 27 26 24 18 15 13 8 6 6 10 15 26 36 68 86 90 95 96 96 97 97 89 90 92 92 94 97 97
34 32 16 16 18 28 25 27 16 15 15 14 12 8 6 9 11 23 37 87 96 95 95 91 86 81 87 95 92 95 98 91
43 41 19 16 18 23 26 32 21 16 18 16 14 14 14 13 9 8 9 18 22 38 56 66 69 48 39 40 57 72 77 75
55 43 37 15 14 19 23 31 29 21 18 18 17 20 18 17 15 20 25 18 12 11 14 15 20 23 29 31 34 39 47 64
54 48 46 40 16 18 24 27 34 30 32 31 32 26 23 22 20 21 22 19 24 26 26 22 18 17 18 20 21 25 26 43
70 60 50 53 33 22 22 27 34 35 35 37 36 37 31 30 26 26 28 30 31 32 32 31 26 29 33 49 61 52 64 73
60 53 43 39 44 27 23 23 28 41 38 35 28 27 33 36 34 25 26 26 26 28 28 30 41 53 59 62 59 56 55 56
69 75 65 56 58 68 42 27 30 40 49 42 34 34 30 35 43 40 34 31 32 37 38 41 41 40 40 48 50 49 50 44
99 87 89 70 66 65 75 64 38 38 58 71 53 43 40 38 35 40 46 44 41 36 42 47 45 46 53 55 52 45 42 41
100 93 96 78 63 60 62 67 77 80 66 76 74 75 57 50 46 43 45 51 56 52 54 57 61 53 50 60 53 46 45 45
100 100 98 98 96 62 51 62 61 52 76 65 69 50 56 63 63 68 61 61 56 60 60 67 72 64 58 65 73 70 65 61
94 91 93 87 85 81 60 40 40 56 58 69 78 71 64 55 61 67 76 84 80 72 69 74 76 77 81 75 82 82 81 78
83 82 73 45 29 32 34 33 32 33 36 36 42 65 70 74 72 73 81 76 65 74 66 61 67 67 78 83 81 75 69 68

GFSFLT1_500_rhum_069.txt.gz
RH
24 26 26 19 11 11 13 16 17 14 9 20 29 86 78 92 92 97 97 97 91 86 71 72 81 81 86 85 83 88 98 97
35 32 29 20 11 10 16 20 16 10 9 19 31 89 89 95 95 99 96 97 96 96 91 81 69 86 91 93 94 91 91 98
50 33 31 17 13 16 22 20 14 7 7 18 42 84 94 90 87 86 97 98 100 100 91 72 68 83 95 85 90 85 80 92
44 35 32 18 15 21 23 20 11 6 6 19 50 71 80 85 79 76 78 87 98 100 99 89 88 90 94 93 90 88 91 97
40 39 42 26 18 22 25 20 11 8 7 8 18 32 70 86 80 73 77 88 89 92 94 99 96 96 98 98 99 94 93 98
47 56 58 35 23 24 25 21 11 13 11 6 8 12 31 59 77 75 81 98 95 97 98 97 94 94 96 96 98 99 98 92
62 78 89 51 24 22 24 21 14 18 14 9 7 6 8 17 63 83 78 94 92 98 98 97 93 97 97 96 97 97 96 97
51 68 87 93 39 20 22 27 27 24 17 13 13 12 10 6 9 23 80 96 100 98 97 97 98 100 98 97 98 96 95 95
44 70 90 84 44 26 18 23 32 29 21 16 16 14 15 16 17 9 11 73 92 96 98 97 97 96 94 92 96 97 99 99
63 68 91 94 78 54 30 19 32 35 28 20 18 16 18 19 22 20 15 12 34 85 94 95 96 97 97 97 98 96 97 98
90 97 98 84 68 58 54 36 18 24 27 26 20 18 19 22 24 25 18 20 17 14 16 31 42 46 43 44 54 70 70 79
68 74 67 52 57 58 53 49 39 24 24 21 23 23 26 34 33 28 26 22 20 20 20 18 17 16 17 20 25 31 33 42
55 56 53 59 70 64 62 65 68 54 37 30 30 27 28 28 29 31 30 26 24 27 27 27 26 27 26 24 24 25 24 24
71 64 58 60 76 77 79 75 74 71 61 54 43 44 38 29 24 26 27 29 26 24 23 25 26 26 25 27 29 32 36 49
75 71 71 76 82 99 96 96 97 99 98 91 86 79 66 57 51 42 34 30 30 35 33 31 31 31 33 33 34 36 38 38
92 88 83 89 95 98 100 98 98 88 95 95 100 92 80 79 80 76 69 48 40 38 39 43 44 43 41 40 42 47 50 50
84 70 78 95 94 94 98 98 93 89 83 83 87 98 94 88 84 99 93 96 96 87 60 55 51 49 49 51 50 52 54 56
100 99 94 80 77 78 88 93 80 80 89 85 86 90 97 97 94 90 96 94 92 97 98 96 97 98 90 82 70 64 60 56
100 100 100 99 81 75 90 91 86 82 83 76 74 78 70 75 85 91 91 90 90 96 92 96 94 93 100 98 98 95 95 92

GFSFLT1_500_rhum_072.txt.gz
RH
83 75 58 29 25 12 8 11 13 15 16 9 12 18 33 90 83 95 97 97 92 97 96 97 69 55 89 95 94 100 98 94
91 77 53 31 27 12 10 13 15 18 11 8 12 20 52 93 92 97 97 98 98 97 89 92 71 79 88 80 81 84 84 91
95 78 43 34 21 14 15 17 21 16 8 7 18 51 86 100 96 96 97 97 96 97 96 80 72 84 75 72 81 89 92 96
96 64 43 34 20 18 21 23 21 15 7 7 19 38 70 92 93 93 96 97 97 96 96 96 97 92 88 85 100 100 98 95
92 54 41 42 25 21 24 27 23 15 8 7 10 16 68 79 79 86 88 88 96 97 98 97 93 96 92 98 95 100 100 100
68 57 46 53 37 22 26 29 23 14 14 11 7 7 18 28 60 81 84 79 77 90 96 97 97 97 96 97 98 92 96 98
70 59 52 47 41 26 30 29 21 14 18 14 9 8 7 9 16 53 75 82 79 80 84 94 96 92 89 95 97 97 92 98
66 53 50 58 37 32 25 32 25 22 23 19 12 12 12 8 8 10 22 71 76 81 93 99 97 94 97 96 96 100 98 97
57 54 50 62 60 48 25 27 28 28 27 22 14 14 15 16 19 17 9 25 78 85 92 95 97 98 96 95 96 98 97 95
66 67 69 73 74 51 57 25 19 19 21 20 20 15 15 18 19 19 17 11 30 80 87 97 97 98 94 93 96 95 92 88
94 81 74 86 74 50 67 57 38 20 19 19 20 21 18 17 21 24 15 14 15 15 44 82 93 96 97 98 98 98 97 94
93 100 91 59 56 57 61 61 57 50 33 23 26 24 23 19 23 24 22 18 15 17 18 16 17 26 42 69 83 86 76 67
96 96 82 62 48 75 64 66 66 68 67 61 42 44 38 29 28 31 27 22 17 19 20 19 20 20 20 19 18 18 19 20
99 97 75 64 56 64 76 74 68 78 76 76 68 58 48 45 41 40 41 36 27 22 20 21 21 21 22 23 24 27 29 28
100 100 92 62 64 84 86 84 85 91 91 99 94 87 80 73 65 50 48 47 45 38 34 32 26 23 24 25 25 24 24 27
96 97 90 80 96 100 98 96 97 97 97 94 95 99 100 98 96 87 74 76 63 54 46 40 40 41 40 40 40 40 38 35
100 98 96 98 100 100 97 97 98 97 96 86 89 87 81 83 94 97 90 90 93 81 84 96 95 71 50 47 46 45 46 48
98 97 96 99 98 99 97 91 96 92 93 90 86 81 81 84 84 85 85 90 87 84 87 91 97 100 97 94 90 79 79 79
100 100 98 98 97 96 91 85 86 91 95 98 99 89 84 87 86 91 88 80 75 76 77 75 80 80 83 96 98 98 96 100

GFSFLT1_500_rhum_075.txt.gz
RH
56 77 98 92 69 30 31 16 11 14 18 16 15 10 10 17 27 72 83 96 96 93 94 95 97 96 97 93 60 72 81 80
38 51 93 90 71 34 35 13 15 19 19 16 9 8 19 44 73 86 84 96 96 98 97 98 95 97 96 68 91 78 78 71
24 46 92 92 88 45 22 14 21 23 19 12 7 22 64 84 93 100 96 94 97 96 98 97 97 97 92 81 94 97 95 84
23 59 98 91 84 49 16 21 26 22 18 8 7 18 24 67 86 94 95 97 96 96 97 97 96 97 87 87 96 99 99 94
39 78 92 95 71 42 17 27 28 22 16 8 8 10 20 72 73 85 94 96 97 97 97 96 95 80 82 90 95 95 98 96
64 94 100 94 58 34 20 29 29 22 16 12 12 7 7 18 30 73 89 89 95 97 96 96 96 97 96 97 90 83 94 93
78 89 95 72 53 38 23 29 32 23 17 16 15 8 8 7 11 21 72 82 86 83 94 96 96 92 96 98 96 83 92 96
93 98 92 65 55 42 23 28 36 24 18 18 19 12 12 13 9 8 11 37 75 76 91 96 97 97 97 97 99 91 90 96
98 98 99 79 58 51 23 22 29 27 23 23 21 14 15 15 17 18 16 10 39 63 77 89 96 100 98 98 86 91 99 99
98 99 98 84 65 48 34 25 56 19 23 22 21 21 15 15 18 19 15 14 12 57 82 84 90 96 96 98 96 96 94 95
100 98 100 82 77 54 44 41 65 25 19 20 24 26 25 19 17 19 21 18 16 14 54 91 84 80 97 93 90 89 92 97
99 98 100 98 91 62 46 56 52 50 47 27 23 26 30 29 22 20 27 25 20 17 18 17 35 74 83 94 97 95 91 83
98 88 100 100 99 77 53 52 62 62 62 55 42 35 32 30 30 28 32 37 29 25 18 18 19 19 18 17 17 20 27 33
95 97 94 99 97 77 60 69 90 84 72 66 61 52 41 38 33 36 36 39 38 30 28 24 20 21 24 24 25 24 23 22
96 95 99 98 98 90 85 82 99 95 82 76 78 76 77 74 62 46 38 41 40 39 33 28 29 26 22 22 22 23 23 23
100 90 90 99 99 95 94 91 94 96 94 92 88 94 89 81 82 86 88 83 64 55 52 42 35 32 31 31 30 31 33 35
100 100 94 98 99 100 100 97 96 98 97 98 97 95 93 92 90 81 75 83 87 86 84 84 88 80 78 77 90 84 47 42
98 99 100 100 100 98 96 91 94 93 97 98 98 95 82 81 81 76 77 78 77 74 73 69 68 66 74 78 82 91 88 92
98 99 96 97 95 92 95 95 96 88 98 95 97 97 94 83 85 80 76 74 72 71 70 68 70 70 67 64 64 64 67 70

GFSFLT1_500_rhum_078.txt.gz
RH
35 37 44 42 72 90 81 76 42 26 16 12 14 18 15 11 9 11 17 30 75 97 97 93 94 96 95 97 99 96 96 82
39 38 37 42 89 79 91 70 48 30 14 14 15 14 9 8 16 29 40 76 98 97 97 96 90 95 96 97 97 98 95 73
40 40 41 47 90 80 91 84 44 26 13 17 15 8 7 25 69 82 88 95 96 93 97 98 100 97 96 95 96 97 87 57
48 50 38 45 75 81 92 76 41 18 17 19 11 7 10 19 66 96 97 97 83 89 97 97 98 97 96 96 97 88 79 92
60 51 30 31 69 92 84 64 37 20 21 17 10 8 8 19 72 78 97 96 91 91 97 95 97 96 95 97 89 82 94 89
59 40 25 36 82 95 91 59 28 20 23 18 10 14 7 8 15 59 90 96 96 97 96 97 96 96 96 96 80 90 97 95
39 24 42 70 90 92 80 60 24 20 23 19 13 17 8 8 7 14 76 96 97 97 97 96 97 96 97 84 82 84 91 89
33 25 50 81 100 77 82 56 25 22 23 19 15 19 13 15 14 14 12 21 85 91 96 96 97 97 96 96 96 96 97 95
24 30 56 94 94 83 76 60 30 20 21 19 19 23 15 17 17 20 18 15 13 68 78 96 98 96 97 98 96 96 96 95
31 56 84 94 99 94 78 73 35 22 23 23 27 25 19 16 17 20 22 21 14 22 73 92 98 99 95 93 95 96 97 97
44 74 89 100 100 100 84 71 41 43 18 20 25 28 24 18 18 18 21 27 24 15 35 86 85 97 99 99 96 96 97 97
41 69 98 98 100 100 96 75 47 53 28 21 20 25 26 22 21 20 19 26 31 23 17 16 40 77 86 98 97 92 92 97
60 89 98 92 98 99 100 70 53 61 55 57 42 21 23 25 24 24 20 23 28 21 16 16 16 17 18 18 18 18 22 36
92 98 95 99 93 97 96 54 51 71 83 68 59 44 30 33 33 31 28 27 24 22 16 15 16 17 18 19 20 20 21 22
75 97 98 94 100 100 95 61 70 87 94 92 81 72 62 52 43 41 35 33 34 31 25 20 16 15 17 16 18 18 17 18
85 98 98 91 96 98 93 74 88 98 97 100 92 84 79 74 81 84 81 79 66 44 43 41 39 31 31 29 29 28 27 29
96 96 96 97 97 97 91 82 98 97 92 96 98 82 87 90 94 86 80 78 71 78 86 86 85 82 86 82 81 76 67 60
91 90 100 98 97 97 93 99 99 96 97 90 93 97 97 95 96 92 87 82 74 71 68 66 63 66 70 72 76 78 80 83
67 79 85 100 92 91 100 100 98 97 97 97 97 97 98 97 97 84 83 82 74 68 65 60 59 61 65 66 69 69 64 61

GFSFLT1_500_rhum_084.txt.gz
RH
8 11 13 15 17 14 14 26 38 38 38 79 76 76 41 25 13 11 12 13 16 13 15 10 10 25 60 80 97 97 97 97
15 15 14 16 25 15 26 31 51 38 53 90 77 71 33 20 11 16 17 14 11 9 10 11 27 41 72 85 96 96 97 96
10 7 8 14 21 30 35 37 41 40 81 86 79 55 25 13 16 15 10 9 13 22 42 35 29 51 86 90 96 95 96 90
11 8 10 22 30 33 37 41 38 48 92 81 84 35 17 17 14 8 9 13 32 43 64 75 61 61 97 98 98 95 97 94
11 8 17 25 34 35 32 36 43 60 90 80 81 28 21 16 8 8 10 12 37 70 96 88 89 80 88 96 96 95 97 96
11 14 30 27 37 40 41 40 44 83 84 87 76 29 23 11 11 7 7 11 19 66 88 100 86 84 97 96 95 96 97 97
15 30 50 42 37 44 49 44 56 87 78 94 65 31 19 13 13 8 7 8 29 90 91 91 88 83 96 96 97 96 95 96
12 48 70 68 36 52 52 38 45 74 82 93 62 31 18 16 13 10 14 16 30 47 96 96 87 80 94 97 96 96 97 96
17 15 31 67 37 55 50 28 33 48 88 86 62 35 16 19 16 15 17 18 19 29 67 98 97 95 98 96 98 97 96 96
70 32 29 52 38 50 34 22 24 58 92 81 67 42 23 21 19 16 18 20 18 26 20 95 97 97 96 96 96 97 96 97
70 54 49 48 43 51 24 24 61 77 76 79 66 44 35 25 26 17 17 20 17 16 10 68 93 94 97 96 95 96 96 96
48 56 56 52 62 45 62 49 82 84 75 78 77 70 45 35 33 26 18 18 17 17 13 36 81 98 96 97 97 97 97 97
44 45 64 65 67 42 71 94 84 91 71 80 84 96 41 32 34 30 27 21 19 19 17 12 62 90 96 97 96 92 97 96
69 59 64 68 78 90 73 81 93 96 66 84 97 100 88 42 27 27 24 26 23 20 23 16 12 22 73 75 85 94 97 93
82 68 48 50 59 78 92 94 99 83 67 85 96 95 96 92 65 30 24 25 24 22 23 27 22 14 16 24 46 62 56 20
92 79 54 35 60 85 98 96 98 96 77 74 99 90 99 90 83 71 52 34 30 31 28 28 28 27 19 14 13 14 16 17
93 100 96 43 64 100 96 92 100 97 97 76 92 99 98 99 100 90 90 76 68 60 48 44 36 37 35 33 30 26 25 27
96 96 98 79 55 98 93 96 90 99 96 82 87 99 95 97 98 94 100 95 87 83 79 88 81 72 52 58 65 67 74 79
99 97 98 95 66 77 82 95 99 99 96 83 85 91 90 96 96 91 96 97 96 95 93 92 91 88 87 92 94 88 78 73

GFSFLT1_500_rhum_087.txt.gz
RH
18 10 8 8 9 8 7 10 12 35 43 57 49 67 80 75 66 38 19 12 10 9 13 16 20 22 12 23 24 51 84 97
22 16 32 19 9 8 9 12 15 34 44 52 58 78 86 79 56 25 16 16 15 14 15 13 10 9 9 13 32 67 96 97
34 38 26 12 16 13 16 22 27 34 45 68 76 67 80 74 33 20 18 17 14 10 11 13 29 30 23 26 54 81 97 96
20 38 17 14 14 14 25 20 44 42 54 62 51 67 75 63 24 22 16 12 8 14 18 25 30 29 49 19 53 87 97 96
16 21 12 9 12 33 11 39 43 45 65 45 59 84 79 50 27 16 12 8 10 15 21 59 62 77 75 51 49 87 90 96
19 13 13 26 50 20 15 46 40 47 56 44 74 82 84 42 24 14 10 8 7 9 14 35 65 92 93 81 76 98 86 97
30 36 48 47 36 10 35 35 41 55 55 55 99 91 86 57 19 13 13 8 8 11 23 58 93 82 88 94 94 91 96 96
57 48 62 28 16 23 31 35 44 72 58 66 98 88 98 55 17 15 16 11 17 17 42 53 98 91 89 86 87 97 96 97
95 78 18 13 13 39 26 46 52 66 66 73 80 88 98 46 18 19 18 17 20 19 25 53 83 97 90 90 96 97 97 96
44 29 20 16 22 36 48 64 74 76 76 56 72 96 88 40 21 22 19 18 20 20 20 63 68 97 97 100 95 96 98 97
31 37 34 44 32 95 96 79 83 81 64 62 79 88 88 32 29 26 24 20 18 19 20 44 34 97 97 98 95 96 96 97
36 36 69 78 83 96 97 97 97 69 32 65 74 90 76 47 38 31 32 25 19 18 19 18 26 92 96 96 97 97 96 97
57 52 77 82 98 100 100 95 97 34 42 79 86 100 90 90 50 38 34 34 26 20 19 19 16 86 97 97 97 97 97 97
65 61 78 95 93 94 93 100 92 93 86 82 89 100 95 96 57 36 34 35 34 31 25 21 19 20 86 95 96 97 96 97
70 68 61 67 84 94 90 84 95 96 89 95 91 97 100 100 98 64 29 27 30 28 26 24 22 16 18 81 94 97 97 97
85 72 72 72 76 84 94 92 89 95 93 98 96 100 100 99 98 80 79 61 37 28 29 29 28 27 18 16 44 90 97 95
87 75 84 77 70 75 79 95 100 100 95 96 92 98 98 99 97 97 77 80 78 60 49 45 41 37 34 28 19 18 19 21
94 90 92 94 79 50 56 73 98 100 98 98 98 99 97 97 98 97 90 73 86 90 86 82 80 57 54 44 37 33 28 24
86 86 77 76 90 94 48 73 87 100 99 95 95 97 91 98 91 93 96 95 82 88 99 96 95 91 86 85 70 51 40 41